Location: Unspecified
(48.5539°N, 71.6350°W)
Time: 18:44:27
(UTC-05:00)

ISS - Pass Details

Date: 01 February 2019
Orbit: 403 x 411 km, 51.6° (Epoch: 22 February)

Event Time Altitude Azimuth Distance (km) Brightness Sun altitude
Rises 19:06:49 0° 289° (WNW) 2,339 1.3 -23.6°
Reaches altitude 10° 19:08:54 10° 292° (WNW) 1,478 -0.1 -23.9°
Enters shadow 19:10:54 33° 303° (WNW) 720 -2.1 -24.3°
Maximum altitude 19:12:13 67° 16° (NNE) 449 - -24.5°
Drops below altitude 10° 19:15:31 10° 100° (E) 1,479 - -25.0°
Sets 19:17:37 0° 103° (ESE) 2,340 - -25.4°
